Location: Palombina Nuova
(43.6167°N, 13.4000°E)
Time: 16:34:40
(UTC+00:00)

CZ-4B R/B - Pass Details

Date: 17 February 2020
Orbit: 497 x 646 km, 97.8° (Epoch: 29 March)

Event Time Altitude Azimuth Distance (km) Brightness Sun altitude
Rises 04:13:10 0° 7° (N) 2,857 7.6 -20.5°
Reaches altitude 10° 04:15:21 10° 2° (N) 1,971 6.7 -20.1°
Maximum altitude 04:19:31 50° 287° (WNW) 802 4.2 -19.4°
Enters shadow 04:20:29 41° 247° (WSW) 912 4.4 -19.2°
